STARLINK-36836, 68065

Orbit data source: Space-Track

STARLINK-36836, 68065 is a payload satellite owned by SpaceX/Seattle (US) in LEO that was launched on Mon, 02 Mar 2026 UTC via an FALCON 9 launch vehicle from the Air Force Eastern Test Range (AFETR). Payload-class satellites include a variety of spacecraft equipped with specific instruments for various scientific and technological missions. These include communications satellites like Starlink; space stations such as the ISS; scientific satellites like the Hubble; Earth observation satellites from companies like Planet Labs, Umbra, and HawkEye 360; GPS; miniature CubeSats for education and research; and military/defense satellites.

Loading next visibility...
Identifier
68065, 2026-041AB
Orbit
LEO
Country
Flag of USUS
Related business
Manufacturer
SpaceX/Seattle
Mission
Operational Commercial Communications
Bus & Motor
STARLINK V2MO, Unknown motor
Mass
575 kg wet, ~530 kg dry
Launch date (UTC)
2026-03-02 (3 months ago)
Launch vehicle
FALCON 9
Launch site
Air Force Eastern Test Range (AFETR)
Object type
Payload
Rocket body
Debris
Shape & HBR
Box + 2 Pan, 17.7 m
Radar Cross Section
36.964 m²

Expand to show TLE details & history
Last TLE update: 19 hours ago

TLE from 19 hours ago
0 STARLINK-36836
1 68065U 26041AB  26138.27824750  .00010665  00000-0  37168-3 0  9999
2 68065  53.1582  86.5583 0001320  88.2363 271.8789 15.30201179 12040
Epoch: 2026-05-18T06:40Z
TLE epoch observation values (Epoch: 2026-05-18T06:40:40.584Z)
Latitude
-0.00004°
Longitude
110.42037°
Altitude
476.082 km
Speed
7.629 km/s
True Right ascension
05h 46m 13s
True Declination
0° 00' 00"
Sunlit
Object was in daylight at epoch
Visualization orbit readout
Latitude
Unknown
Longitude
Unknown
Altitude
Unknown
Speed
Unknown
Apparent Right ascension
Unknown
Apparent Declination
Unknown
Sunlit
N/A
Visualization observer readout
Local Sidereal Time
10:03:10
Azimuth
Unknown
Elevation
Unknown
Doppler factor
Unknown
Orbital elements
Apogee altitude
476.373 km
Perigee altitude
474.564 km
Semi-major axis
6,853.605 km
Eccentricity
0.00013
Inclination
53.1582°
RAAN
86.5583°
Arg. of periapsis
88.2363°
True anomaly
271.86378°
Mean anomaly
271.8789°
Eccentric anomaly
271.87134°
Mean motion
3.82529 °/min
Orbital period
94.11 mins
BSTAR
0.00037168
Loading maneuver chart data...
Computing Atmospheric mass density...
Loading historical data...
Loading historical data...
Loading historical data...
Loading historical data...
Loading historical data...
Loading historical data...
Loading historical data...

Documentation

Showing up to 5 results
|